Weather History for George, South Africa

Change the Weather History Date:

Saturday, October 12, 2013

  Actual Average Record
Temperature  
Mean Temperature 60 °F -  
Max Temperature 69 °F 68 °F 89 °F (2000)
Min Temperature 50 °F 51 °F 44 °F (2010)
Degree Days  
Heating Degree Days 6    
Growing Degree Days 10 (Base 50)    
Moisture  
Dew Point 49 °F    
Average Humidity 72    
Maximum Humidity 88    
Minimum Humidity 24    
Precipitation  
Precipitation 0.63 in - - ()
Sea Level Pressure  
Sea Level Pressure 29.99 in    
Wind  
Wind Speed 12 mph ()    
Max Wind Speed 37 mph    
Max Gust Speed 52 mph    
Visibility 7.8 miles    
Events Rain    
Averages and records for this station are not official NWS values.
T = Trace of Precipitation, MM = Missing Value Source: Averaged Metar Reports

Daily Weather History Graph

Daily Weather History Graph

Search for Another Location

Airport:

Trip Planner

Search our weather history database for the weather conditions in past years. The results will help you decide how hot, cold, wet, or windy it might be!

Date:

Astronomy

Oct. 12, 2013 Rise Set
Actual Time 5:52 AM SAST 6:41 PM SAST
Civil Twilight 5:27 AM SAST 7:07 PM SAST
Nautical Twilight 4:57 AM SAST 7:37 PM SAST
Astronomical Twilight 4:26 AM SAST 8:08 PM SAST
Moon 12:07 PM SAST 1:13 AM SAST
Length of Visible Light 13h 39m
Length of Day
12h 48m
First Quarter, 55% of the Moon is Illuminated
Oct 12
First Quarter
Oct 19
Full
Oct 27
Last Quarter
Nov 3
New
Nov 10
First Quarter

Hourly Weather History & Observations

Time (SAST) Temp. Dew Point Humidity Pressure Visibility Wind Dir Wind Speed Gust Speed Precip Events Conditions
12:00 AM 60.8 °F 55.4 °F 82% 29.92 in 6.2 mi Variable 2.3 mph - N/A   Overcast
1:00 AM 59.0 °F 55.4 °F 88% 29.89 in 6.2 mi WSW 3.5 mph - N/A   Overcast
2:00 AM 59 °F 55 °F 82% 29.89 in 6 mi West 5.8 mph - -  
2:00 AM 59.0 °F 55.4 °F 88% 29.89 in 6.2 mi West 5.8 mph - N/A   Overcast
3:00 AM 59.0 °F 55.4 °F 88% 29.89 in 6.2 mi WNW 6.9 mph - N/A   Mostly Cloudy
4:00 AM 59.0 °F 50.0 °F 72% 29.89 in 6.2 mi WSW 13.8 mph - N/A   Overcast
5:00 AM 57 °F 49 °F 66% 29.88 in 19 mi West 10.4 mph - -   Partly Cloudy
5:00 AM 57.2 °F 48.2 °F 72% 29.86 in 6.2 mi West 9.2 mph - N/A   Scattered Clouds
6:00 AM 55.4 °F 48.2 °F 77% 29.89 in 6.2 mi WNW 12.7 mph - N/A   Partly Cloudy
7:00 AM 57.2 °F 48.2 °F 72% 29.89 in 6.2 mi West 10.4 mph - N/A   Partly Cloudy
8:00 AM 62 °F 47 °F 49% 29.91 in 19 mi West 12.7 mph - -   Scattered Clouds
8:00 AM 62.6 °F 46.4 °F 55% 29.92 in 6.2 mi West 12.7 mph - N/A   Partly Cloudy
9:00 AM 64.4 °F 44.6 °F 49% 29.92 in 6.2 mi West 16.1 mph - N/A   Partly Cloudy
10:00 AM 66.2 °F 44.6 °F 46% 29.92 in 6.2 mi WSW 21.9 mph 35.7 mph N/A   Scattered Clouds
11:00 AM 68 °F 39 °F 24% 29.92 in 19 mi West 33.4 mph - -   Partly Cloudy
11:00 AM 69.8 °F 41.0 °F 35% 29.92 in 6.2 mi West 32.2 mph 47.2 mph N/A   Scattered Clouds
12:00 PM 64.4 °F 42.8 °F 45% 29.95 in 6.2 mi WSW 36.8 mph 51.8 mph N/A   Mostly Cloudy
1:00 PM 60.8 °F 50.0 °F 68% 30.01 in 6.2 mi West 25.3 mph - N/A   Mostly Cloudy
2:00 PM 54 °F 50 °F 82% 30.04 in 6 mi West 24.2 mph - - Rain Light Rain
2:00 PM 53.6 °F 50.0 °F 88% 30.04 in 6.2 mi West 24.2 mph - N/A Rain Light Rain
3:00 PM 57.2 °F 51.8 °F 82% 30.04 in 6.2 mi West 17.3 mph - N/A   Mostly Cloudy
4:00 PM 57.2 °F 48.2 °F 72% 30.04 in 6.2 mi WSW 24.2 mph - N/A Rain Light Rain
5:00 PM 53 °F 48 °F 78% 30.09 in 12 mi WSW 17.3 mph - - Rain Light Rain
5:00 PM 53.6 °F 48.2 °F 82% 30.06 in 6.2 mi WSW 17.3 mph 33.4 mph N/A   Mostly Cloudy
6:00 PM 55.4 °F 50.0 °F 82% 30.09 in 6.2 mi NW 13.8 mph - N/A   Mostly Cloudy
7:00 PM 53.6 °F 50.0 °F 88% 30.09 in 6.2 mi West 11.5 mph - N/A   Light Drizzle
8:00 PM 51 °F 47 °F 83% 30.15 in 12 mi WNW 16.1 mph - - Rain Light Rain
8:00 PM 51.8 °F 48.2 °F 88% 30.12 in 6.2 mi WNW 16.1 mph - N/A Rain Light Rain
9:00 PM 50.0 °F 46.4 °F 87% 30.18 in 6.2 mi West 11.5 mph - N/A   Mostly Cloudy
10:00 PM 50.0 °F 46.4 °F 87% 30.18 in 6.2 mi WNW 12.7 mph - N/A Rain Light Rain
11:00 PM 51.8 °F 48.2 °F 88% 30.18 in 6.2 mi NW 10.4 mph - N/A   Mostly Cloudy